User: anonymous   Login
Location: Caltech
(34.1382°N, 118.1253°W)
Time: 10:04:33
(UTC-07:00)
Language:

UOSAT-12 - Orbit

View from above orbital plane
View from above orbital plane
View from above satellite
View from above satellite

Ground track
Ground track

The orbit data is extracted from the following two-line orbital elements,

1 25693U 99021A   15143.53549634  .00000231  00000-0  48726-4 0  9996
2 25693 064.5563 294.1802 0043495 243.7210 184.3207 14.80445373868293
Epoch (UTC): 23 May 2015 12:51:06
Eccentricity: 0.0043495
inclination: 64.5563°
perigee height: 597 km
apogee height: 658 km
right ascension of ascending node: 294.1802°
argument of perigee: 243.7210°
revolutions per day: 14.80445373
mean anomaly at epoch: 184.3207°
orbit number at epoch: 86829

The dashed part of the orbit path shows where the satellite is in the earth's shadow,  

DLR